Zurück zum Katalog

STARLINK-35527

AktivKommunikationVLEO
NORAD 66092·PAYLOAD·🇺🇸 United States

Gestartet Oct 19, 2025 von Vandenberg Space Force Base

Loading…

Nächste Überflüge (nächste 24 Stunden)

TLE

AktuellSource: CelesTrak SupGP

Epoche: Sep 15, 2026, 04:18 UTC

1 66092C 25236G   26258.17965278 -.00002458  00000+0 -72608-4 0  2584
2 66092  53.1584 300.2389 0001272  85.4254 336.0734 15.34399761    11

Verfolge STARLINK-35527 in Echtzeit mit AllMySat

Download on the App Store